Location: Quedlinburg
(51.7921°N, 11.1414°E)
Time: 13:56:14
(UTC+02:00)

RS-15 - Pass Details

Date: 16 March 2026
Orbit: 1893 x 2152 km, 64.8° (Epoch: 22 April)

Event Time Altitude Azimuth Distance (km) Brightness Sun altitude
Rises 03:21:43 0° 311° (NW) 5,359 10.2 -27.8°
Reaches altitude 10° 03:25:01 10° 314° (NW) 4,386 9.8 -27.4°
Maximum altitude 03:36:22 68° 38° (NE) 2,151 8.3 -26.0°
Drops below altitude 10° 03:48:15 10° 121° (ESE) 4,583 10.3 -24.4°
Sets 03:51:46 0° 125° (SE) 5,608 10.8 -23.9°
